Regional Weather Roundup
Issued by NWS

Home | Current Version | Previous Version | Text Only | Print | Product List | Glossary Off
Versions: 1 2 3 4 5 6 7 8 9 10 11 12 13 14 15 16 17 18 19 20 21 22 23 24 25 26 27 28 29 30 31 32 33 34 35 36 37 38 39 40 41 42 43 44 45 46 47 48 49 50

000
ASUS43 KFSD 012202
RWRSD

WEATHER ROUNDUP FOR SOUTH DAKOTA
NATIONAL WEATHER SERVICE SIOUX FALLS SD
500 PM CDT WED APR 01 2015

NOTE: "FAIR" INDICATES FEW OR NO CLOUDS BELOW 12,000 FEET WITH NO
SIGNIFICANT WEATHER AND/OR OBSTRUCTIONS TO VISIBILITY.


SDZ001>005-009-010-012>017-012300-
NORTHWEST AND NORTH CENTRAL SOUTH DAKOTA

CITY           SKY/WX    TMP DP  RH WIND       PRES   REMARKS
BUFFALO          N/A     56   9  15 NW31G44   29.69R
FAITH            N/A     56  18  22 NW25G36   29.72R
MOBRIDGE       PTSUNNY   65  26  23 NW23G33   29.61R
$$

SDZ012>016-024>037-041>051-057-063-072>074-012300-
SOUTHWEST AND SOUTH CENTRAL SOUTH DAKOTA

CITY           SKY/WX    TMP DP  RH WIND       PRES   REMARKS
RAPID CTY ARPT MOSUNNY   54  26  34 NW37G48   29.75R
PIERRE         SUNNY     67  26  21 NW30G37   29.64R
CUSTER         PTSUNNY   49  26  41 W17G23    29.78R
ELLSWORTH AFB  MOSUNNY   53  23  30 NW25G37   29.76R
PHILIP         MOSUNNY   62  22  21 NW32G38   29.70R
PINE RIDGE     MOSUNNY   60  32  34 N14       29.72R
SPEARFISH      FAIR      46  19  34 W17G24    29.83R
WINNER         FAIR      69  32  25 N26G33    29.65R
$$

SDZ004>011-016>023-039-040-012300-
NORTHEAST SOUTH DAKOTA

CITY           SKY/WX    TMP DP  RH WIND       PRES   REMARKS
ABERDEEN       MOSUNNY   70  36  28 NW24G32   29.56R
WATERTOWN      CLOUDY    63  39  41 NW16      29.53R
BROOKINGS      CLOUDY    68  34  28 NW17G23   29.53R
SISSETON         N/A     70  42  36 NW28G35   29.47R
$$

SDZ017-020-022-023-036>040-048>070-012300-
SOUTHEAST SOUTH DAKOTA

CITY           SKY/WX    TMP DP  RH WIND       PRES   REMARKS
SIOUX FALLS    CLOUDY    76  34  21 W16G26    29.50R
HURON          CLOUDY    71  40  32 NW23G33   29.57R
MITCHELL       CLOUDY    69  40  34 NW16      29.58R
YANKTON        CLOUDY    75  37  25 NW20      29.52R
$$

ABBREVIATIONS USED IN REMARKS
   TC - TEMPERATURE IN CELSIUS
  WCI - WIND CHILL INDEX
   HX - HEAT INDEX
  VSB - VISIBILITY




USA.gov is the U.S. government's official web portal to all federal, state and local government web resources and services.